CW5763 Weather Reports


Display with metric or nautical units.
time (UTC)temp
F
wind
direction
speed
MPH
gust
MPH
rain 1hr
in
rain 24hr
in
rain mn
in
humidity
%
barometer
mb
20260905024005 56 305 2.0 3.0 0.00 0.06 0.00 89 1021.7
20260905023006 56 306 2.0 3.0 0.00 0.06 0.00 89 1021.6
20260905022006 56 309 2.0 5.0 0.00 0.06 0.00 89 1021.4
20260905021006 56 302 3.0 5.0 0.00 0.06 0.00 88 1021.2
20260905020006 56 306 3.0 3.0 0.00 0.06 0.00 88 1021.2
20260905015007 56 297 2.0 7.0 0.00 0.06 0.00 88 1021.3
20260905014006 56 302 3.0 7.0 0.00 0.06 0.00 88 1021.3
20260905013006 57 297 2.0 5.0 0.00 0.06 0.00 88 1021.1
20260905012006 57 305 3.0 5.0 0.00 0.06 0.00 87 1021.1
20260905011006 57 297 2.0 6.0 0.00 0.06 0.00 87 1021.1
20260905010005 57 304 2.0 7.0 0.00 0.06 0.00 87 1021.1
20260905004006 57 300 3.0 7.0 0.00 0.06 0.00 87 1021.0
20260905003007 57 302 3.0 5.0 0.00 0.06 0.00 87 1021.1
20260905002006 57 299 3.0 6.0 0.00 0.06 0.00 86 1021.1
20260905001006 57 316 3.0 7.0 0.00 0.06 0.00 86 1021.0
20260905000006 57 301 3.0 6.0 0.00 0.06 0.00 86 1020.9
20260904235005 57 298 2.0 8.0 0.00 0.06 0.00 86 1020.9
20260904234005 57 295 3.0 7.0 0.00 0.06 0.00 85 1020.8
20260904233005 57 306 3.0 7.0 0.00 0.06 0.00 85 1020.7
20260904232005 57 311 3.0 7.0 0.00 0.06 0.00 85 1020.7
20260904231005 57 309 2.0 7.0 0.00 0.06 0.00 85 1020.7
20260904230005 57 298 3.0 7.0 0.00 0.06 0.00 85 1020.6
20260904223005 57 313 3.0 7.0 0.00 0.06 0.06 85 1020.5
20260904222007 57 299 3.0 6.0 0.00 0.06 0.06 84 1020.4
20260904221005 58 306 3.0 7.0 0.00 0.06 0.06 84 1020.5
20260904220004 58 290 2.0 3.0 0.00 0.06 0.06 83 1020.4
20260904215005 58 318 2.0 7.0 0.00 0.06 0.06 82 1020.4
20260904214005 58 294 2.0 5.0 0.00 0.06 0.06 81 1020.3
20260904212005 59 305 1.0 3.0 0.00 0.06 0.06 80 1020.1
20260904205005 59 302 5.0 9.0 0.00 0.06 0.06 79 1020.1
20260904204005 60 295 6.0 12.0 0.00 0.06 0.06 78 1020.0
20260904203005 60 305 3.0 7.0 0.00 0.06 0.06 77 1019.9
20260904202005 60 301 3.0 7.0 0.00 0.06 0.06 76 1019.8
20260904201005 61 298 5.0 10.0 0.00 0.06 0.06 76 1019.7
20260904200005 61 306 5.0 10.0 0.00 0.06 0.06 75 1019.7
20260904195005 61 299 3.0 9.0 0.00 0.06 0.06 74 1019.4
20260904193005 62 295 4.0 9.0 0.00 0.06 0.06 74 1019.0
20260904192005 62 309 5.0 12.0 0.00 0.06 0.06 73 1018.9
20260904191005 62 302 5.0 9.0 0.00 0.06 0.06 73 1018.8
20260904190004 63 301 5.0 12.0 0.00 0.06 0.06 72 1018.7
20260904185005 63 307 4.0 8.0 0.00 0.06 0.06 73 1018.3
20260904184005 63 293 5.0 9.0 0.00 0.06 0.06 73 1018.5
20260904182005 63 302 3.0 10.0 0.00 0.06 0.06 74 1018.3
20260904181006 64 297 5.0 10.0 0.00 0.06 0.06 74 1018.1
20260904180005 64 299 5.0 7.0 0.00 0.06 0.06 74 1017.9
20260904175005 64 307 3.0 3.0 0.00 0.06 0.06 74 1018.0
20260904174005 64 301 2.0 6.0 0.00 0.06 0.06 74 1017.9
20260904173005 65 288 1.0 6.0 0.00 0.06 0.06 73 1017.8
20260904172005 65 300 2.0 8.0 0.00 0.06 0.06 73 1017.8
20260904171005 65 303 4.0 10.0 0.00 0.06 0.06 72 1017.8
20260904170005 65 292 3.0 8.0 0.00 0.06 0.06 72 1017.7
20260904164005 65 305 4.0 9.0 0.00 0.06 0.06 71 1017.8
20260904163005 65 302 3.0 10.0 0.00 0.06 0.06 72 1017.8
20260904162005 66 296 5.0 9.0 0.00 0.06 0.06 72 1017.6
20260904161005 66 309 3.0 8.0 0.00 0.06 0.06 73 1017.6
20260904154005 66 323 5.0 12.0 0.00 0.06 0.06 73 1017.4
20260904153005 67 296 5.0 12.0 0.00 0.06 0.06 74 1017.2
20260904152005 67 319 6.0 10.0 0.00 0.06 0.06 73 1017.2
20260904151004 67 314 5.0 10.0 0.00 0.06 0.06 73 1016.9
20260904150005 68 303 6.0 12.0 0.00 0.06 0.06 72 1016.9
20260904145005 68 324 4.0 14.0 0.00 0.06 0.06 72 1016.7
20260904144004 69 323 6.0 14.0 0.00 0.06 0.06 71 1017.0
20260904143005 70 318 6.0 12.0 0.00 0.06 0.06 71 1016.9
20260904142005 70 297 4.0 12.0 0.00 0.06 0.06 73 1016.5
20260904141005 71 288 6.0 14.0 0.00 0.06 0.06 72 1016.5
20260904135007 71 296 4.0 12.0 0.00 0.06 0.06 69 1016.4
20260904134005 71 301 7.0 12.0 0.00 0.06 0.06 69 1016.3
20260904133005 71 300 7.0 12.0 0.00 0.06 0.06 70 1016.3
20260904132004 71 302 6.0 14.0 0.00 0.06 0.06 73 1016.3
20260904131004 71 293 6.0 14.0 0.00 0.06 0.06 73 1016.3
20260904130007 71 273 6.0 17.0 0.00 0.06 0.06 78 1016.3
20260904125004 70 306 7.0 14.0 0.00 0.06 0.06 81 1016.2
20260904123005 70 300 3.0 10.0 0.00 0.06 0.06 82 1015.9
20260904122004 70 308 6.0 12.0 0.00 0.06 0.06 81 1015.9
20260904121004 69 294 5.0 10.0 0.00 0.06 0.06 84 1015.8
20260904120004 69 303 3.0 10.0 0.00 0.06 0.06 83 1015.7
20260904115004 68 296 3.0 10.0 0.00 0.06 0.06 88 1015.6
20260904113004 69 317 4.0 12.0 0.00 0.06 0.06 85 1015.5
20260904112004 69 301 5.0 12.0 0.00 0.06 0.06 86 1015.2
20260904111004 68 279 5.0 12.0 0.00 0.06 0.06 88 1015.3
20260904110004 67 269 3.0 12.0 0.00 0.06 0.06 88 1015.4
20260904105007 67 291 4.0 8.0 0.00 0.06 0.06 89 1015.4
20260904104004 67 297 3.0 12.0 0.00 0.06 0.06 90 1015.4
20260904103004 66 291 5.0 14.0 0.00 0.06 0.06 90 1015.3
20260904102004 67 281 5.0 14.0 0.00 0.06 0.06 91 1015.3
20260904101004 67 295 5.0 12.0 0.00 0.06 0.06 92 1015.3
20260904100006 67 299 5.0 10.0 0.00 0.06 0.06 93 1015.0
20260904095004 66 289 5.0 10.0 0.00 0.06 0.06 94 1014.7
20260904094004 66 286 2.0 10.0 0.01 0.06 0.06 95 1014.6
20260904092006 66 299 5.0 9.0 0.04 0.06 0.06 96 1014.7
20260904091004 65 291 3.0 8.0 0.04 0.06 0.06 96 1014.6
20260904090004 65 297 4.0 9.0 0.04 0.06 0.06 96 1014.6
20260904085004 65 302 5.0 12.0 0.04 0.06 0.06 94 1014.5
20260904083004 67 329 6.0 20.0 0.01 0.02 0.02 95 1014.2
20260904082004 67 277 6.0 16.0 0.00 0.02 0.02 95 1013.8
20260904081004 66 277 8.0 16.0 0.00 0.02 0.02 95 1013.7
20260904080004 66 287 7.0 15.0 0.00 0.02 0.02 96 1013.6
20260904075005 66 261 6.0 15.0 0.00 0.02 0.02 95 1013.5
20260904073006 66 257 5.0 18.0 0.00 0.02 0.02 96 1013.5
20260904072007 66 294 4.0 22.0 0.00 0.02 0.02 96 1013.7
20260904071006 66 291 5.0 15.0 0.00 0.02 0.02 96 1013.6
20260904070006 66 222 6.0 15.0 0.00 0.02 0.02 96 1013.7
20260904064006 66 238 6.0 15.0 0.00 0.02 0.02 96 1013.6
20260904063007 66 218 6.0 16.0 0.00 0.02 0.02 96 1013.5
20260904061006 66 253 6.0 17.0 0.00 0.02 0.02 96 1014.0
20260904060006 66 276 7.0 20.0 0.00 0.02 0.02 96 1014.0
20260904055006 66 266 4.0 15.0 0.00 0.02 0.02 96 1014.0
20260904054006 66 86 5.0 15.0 0.00 0.02 0.02 96 1014.0
20260904052006 66 286 3.0 20.0 0.00 0.02 0.02 96 1013.9
20260904051005 66 302 6.0 15.0 0.00 0.02 0.02 96 1013.9
20260904050006 66 239 5.0 15.0 0.00 0.02 0.02 96 1013.9
20260904045006 66 268 5.0 20.0 0.00 0.02 0.02 96 1014.0
20260904043006 66 322 5.0 15.0 0.00 0.02 0.02 96 1014.1
20260904042005 66 186 3.0 20.0 0.00 0.02 0.02 96 1014.2
20260904041006 66 185 7.0 17.0 0.00 0.02 0.02 96 1014.3
20260904040006 66 194 4.0 18.0 0.01 0.02 0.02 96 1014.5
20260904035006 66 176 6.0 17.0 0.01 0.02 0.02 96 1014.9
20260904034006 66 206 5.0 17.0 0.02 0.02 0.02 96 1015.0
20260904033006 66 221 5.0 12.0 0.02 0.02 0.02 96 1015.1
20260904031006 66 233 5.0 15.0 0.02 0.02 0.02 96 1015.2
20260904030006 66 352 4.0 16.0 0.01 0.02 0.01 96 1015.3
20260904025006 66 182 3.0 15.0 0.01 0.02 0.01 97 1015.4